| time (UTC) | temp C | wind direction | speed KPH | gust KPH | rain 1hr cm | rain 24hr cm | rain mn cm | humidity % | barometer mb |
| 20260506212540 | 16 | 260 | 22.5 | 35.4 | 0.00 | 0.08 | 0.00 | 32 | 1016.6 |
| 20260506212040 | 15 | 292 | 17.7 | 27.4 | 0.00 | 0.08 | 0.00 | 34 | 1016.5 |
| 20260506211547 | 15 | 348 | 12.9 | 25.7 | 0.00 | 0.08 | 0.00 | 37 | 1016.7 |
| 20260506211040 | 14 | 269 | 16.1 | 25.7 | 0.00 | 0.08 | 0.00 | 37 | 1016.7 |
| 20260506210541 | 14 | 319 | 14.5 | 20.9 | 0.00 | 0.08 | 0.00 | 38 | 1016.8 |
| 20260506210052 | 13 | 300 | 11.3 | 24.1 | 0.00 | 0.08 | 0.00 | 46 | 1016.9 |
| 20260506205540 | 12 | 333 | 16.1 | 45.1 | 0.00 | 0.08 | 0.00 | 50 | 1017.2 |
| 20260506205041 | 13 | 344 | 25.7 | 45.1 | 0.00 | 0.08 | 0.00 | 44 | 1017.1 |
| 20260506204610 | 14 | 300 | 17.7 | 30.6 | 0.00 | 0.08 | 0.00 | 34 | 1016.7 |
| 20260506204040 | 15 | 273 | 16.1 | 30.6 | 0.00 | 0.08 | 0.00 | 33 | 1016.9 |
| 20260506203540 | 15 | 287 | 17.7 | 32.2 | 0.00 | 0.08 | 0.00 | 32 | 1016.7 |
| 20260506203047 | 15 | 269 | 24.1 | 32.2 | 0.00 | 0.08 | 0.00 | 32 | 1016.8 |
| 20260506202540 | 15 | 236 | 12.9 | 29.0 | 0.00 | 0.08 | 0.00 | 35 | 1016.7 |
| 20260506202038 | 14 | 301 | 17.7 | 30.6 | 0.00 | 0.08 | 0.00 | 35 | 1016.8 |
| 20260506201553 | 14 | 242 | 19.3 | 30.6 | 0.00 | 0.08 | 0.00 | 35 | 1016.8 |
| 20260506201038 | 14 | 262 | 14.5 | 30.6 | 0.00 | 0.08 | 0.00 | 34 | 1016.9 |
| 20260506200543 | 15 | 295 | 16.1 | 29.0 | 0.00 | 0.08 | 0.00 | 35 | 1016.9 |
| 20260506200039 | 14 | 282 | 12.9 | 25.7 | 0.00 | 0.08 | 0.00 | 36 | 1017.0 |
| 20260506195538 | 14 | 258 | 14.5 | 33.8 | 0.00 | 0.08 | 0.00 | 35 | 1017.1 |
| 20260506195040 | 15 | 284 | 22.5 | 33.8 | 0.00 | 0.08 | 0.00 | 33 | 1017.2 |
| 20260506194603 | 14 | 270 | 22.5 | 37.0 | 0.00 | 0.08 | 0.00 | 34 | 1017.3 |
| 20260506194046 | 15 | 244 | 24.1 | 37.0 | 0.00 | 0.08 | 0.00 | 34 | 1017.2 |
| 20260506193537 | 15 | 290 | 22.5 | 40.2 | 0.00 | 0.08 | 0.00 | 32 | 1017.2 |
| 20260506193057 | 16 | 267 | 22.5 | 40.2 | 0.00 | 0.08 | 0.00 | 33 | 1017.2 |
| 20260506192537 | 16 | 250 | 25.7 | 40.2 | 0.00 | 0.08 | 0.00 | 33 | 1017.3 |
| 20260506192041 | 16 | 286 | 22.5 | 40.2 | 0.00 | 0.08 | 0.00 | 30 | 1017.4 |
| 20260506191546 | 16 | 299 | 24.1 | 35.4 | 0.00 | 0.08 | 0.00 | 32 | 1017.4 |
| 20260506191041 | 16 | 281 | 20.9 | 35.4 | 0.00 | 0.08 | 0.00 | 32 | 1017.5 |
| 20260506190538 | 15 | 255 | 20.9 | 37.0 | 0.00 | 0.08 | 0.00 | 32 | 1017.5 |
| 20260506190049 | 15 | 300 | 25.7 | 37.0 | 0.00 | 0.08 | 0.00 | 33 | 1017.5 |
| 20260506185538 | 15 | 275 | 22.5 | 40.2 | 0.00 | 0.08 | 0.00 | 33 | 1017.5 |
| 20260506185041 | 15 | 267 | 27.4 | 40.2 | 0.00 | 0.08 | 0.00 | 33 | 1017.6 |
| 20260506184549 | 15 | 268 | 19.3 | 45.1 | 0.00 | 0.08 | 0.00 | 33 | 1017.5 |
| 20260506184038 | 15 | 257 | 27.4 | 45.1 | 0.00 | 0.08 | 0.00 | 33 | 1017.6 |
| 20260506183538 | 15 | 261 | 25.7 | 38.6 | 0.00 | 0.08 | 0.00 | 32 | 1017.7 |
| 20260506183046 | 15 | 256 | 17.7 | 33.8 | 0.00 | 0.08 | 0.00 | 34 | 1017.6 |
| 20260506182538 | 14 | 300 | 22.5 | 35.4 | 0.00 | 0.08 | 0.00 | 35 | 1017.7 |
| 20260506182037 | 15 | 269 | 25.7 | 35.4 | 0.00 | 0.08 | 0.00 | 33 | 1017.7 |
| 20260506181551 | 14 | 313 | 20.9 | 40.2 | 0.00 | 0.08 | 0.00 | 33 | 1017.8 |
| 20260506181038 | 14 | 234 | 27.4 | 40.2 | 0.00 | 0.08 | 0.00 | 36 | 1017.9 |
| 20260506180541 | 14 | 262 | 19.3 | 32.2 | 0.00 | 0.08 | 0.00 | 34 | 1017.8 |
| 20260506180054 | 14 | 282 | 24.1 | 38.6 | 0.00 | 0.08 | 0.00 | 38 | 1017.9 |
| 20260506175538 | 13 | 262 | 20.9 | 45.1 | 0.00 | 0.08 | 0.00 | 37 | 1018.0 |
| 20260506175040 | 13 | 256 | 22.5 | 45.1 | 0.00 | 0.08 | 0.00 | 39 | 1018.1 |
| 20260506174545 | 13 | 236 | 20.9 | 35.4 | 0.00 | 0.08 | 0.00 | 40 | 1018.0 |
| 20260506174038 | 13 | 248 | 17.7 | 35.4 | 0.00 | 0.08 | 0.00 | 41 | 1018.1 |
| 20260506173539 | 13 | 274 | 20.9 | 35.4 | 0.00 | 0.08 | 0.00 | 39 | 1018.2 |
| 20260506173050 | 13 | 290 | 22.5 | 33.8 | 0.00 | 0.08 | 0.00 | 41 | 1018.0 |
| 20260506172539 | 12 | 257 | 17.7 | 32.2 | 0.00 | 0.08 | 0.00 | 42 | 1017.9 |
| 20260506172039 | 12 | 244 | 17.7 | 32.2 | 0.00 | 0.08 | 0.00 | 43 | 1017.9 |
| 20260506171556 | 12 | 262 | 19.3 | 35.4 | 0.00 | 0.08 | 0.00 | 44 | 1018.1 |
| 20260506171040 | 12 | 259 | 20.9 | 35.4 | 0.00 | 0.08 | 0.00 | 44 | 1018.1 |
| 20260506170540 | 12 | 224 | 22.5 | 32.2 | 0.00 | 0.08 | 0.00 | 44 | 1017.9 |
| 20260506170052 | 12 | 252 | 22.5 | 37.0 | 0.00 | 0.08 | 0.00 | 45 | 1017.9 |
| 20260506165539 | 11 | 254 | 19.3 | 37.0 | 0.00 | 0.08 | 0.00 | 48 | 1018.0 |
| 20260506165038 | 11 | 246 | 20.9 | 30.6 | 0.00 | 0.08 | 0.00 | 45 | 1017.7 |
| 20260506164603 | 11 | 268 | 16.1 | 32.2 | 0.00 | 0.08 | 0.00 | 47 | 1017.8 |
| 20260506164041 | 11 | 252 | 20.9 | 38.6 | 0.00 | 0.08 | 0.00 | 45 | 1017.9 |
| 20260506163537 | 11 | 269 | 19.3 | 38.6 | 0.00 | 0.08 | 0.00 | 49 | 1017.9 |
| 20260506163048 | 10 | 295 | 20.9 | 32.2 | 0.00 | 0.08 | 0.00 | 47 | 1017.9 |
| 20260506162539 | 11 | 262 | 17.7 | 33.8 | 0.00 | 0.08 | 0.00 | 47 | 1017.9 |
| 20260506162038 | 11 | 246 | 20.9 | 33.8 | 0.00 | 0.08 | 0.00 | 50 | 1017.9 |
| 20260506161553 | 11 | 288 | 19.3 | 29.0 | 0.00 | 0.08 | 0.00 | 49 | 1017.8 |
| 20260506161038 | 10 | 252 | 22.5 | 30.6 | 0.00 | 0.08 | 0.00 | 50 | 1017.7 |
| 20260506160538 | 10 | 250 | 20.9 | 30.6 | 0.00 | 0.08 | 0.00 | 51 | 1017.7 |
| 20260506160049 | 10 | 255 | 19.3 | 33.8 | 0.00 | 0.08 | 0.00 | 52 | 1017.7 |
| 20260506155538 | 10 | 245 | 22.5 | 33.8 | 0.00 | 0.08 | 0.00 | 53 | 1017.6 |
| 20260506155041 | 10 | 267 | 22.5 | 32.2 | 0.00 | 0.08 | 0.00 | 52 | 1017.7 |
| 20260506154601 | 10 | 257 | 17.7 | 32.2 | 0.00 | 0.08 | 0.00 | 53 | 1017.7 |
| 20260506154038 | 10 | 271 | 20.9 | 35.4 | 0.00 | 0.08 | 0.00 | 55 | 1017.8 |
| 20260506153538 | 8 | 263 | 25.7 | 37.0 | 0.00 | 0.08 | 0.00 | 56 | 1017.8 |
| 20260506153049 | 8 | 269 | 25.7 | 37.0 | 0.00 | 0.08 | 0.00 | 57 | 1017.6 |
| 20260506152537 | 8 | 248 | 25.7 | 37.0 | 0.00 | 0.08 | 0.00 | 57 | 1017.5 |
| 20260506152037 | 8 | 246 | 27.4 | 37.0 | 0.00 | 0.08 | 0.00 | 55 | 1017.5 |
| 20260506151550 | 8 | 250 | 27.4 | 37.0 | 0.00 | 0.08 | 0.00 | 58 | 1017.4 |
| 20260506151038 | 8 | 252 | 24.1 | 35.4 | 0.00 | 0.08 | 0.00 | 60 | 1017.3 |
| 20260506150538 | 8 | 267 | 24.1 | 33.8 | 0.00 | 0.08 | 0.00 | 59 | 1017.5 |
| 20260506150051 | 8 | 246 | 24.1 | 32.2 | 0.00 | 0.08 | 0.00 | 59 | 1017.6 |
| 20260506145540 | 8 | 257 | 22.5 | 30.6 | 0.00 | 0.08 | 0.00 | 60 | 1017.7 |
| 20260506145039 | 7 | 253 | 20.9 | 30.6 | 0.00 | 0.08 | 0.00 | 61 | 1017.6 |
| 20260506144600 | 7 | 269 | 20.9 | 32.2 | 0.00 | 0.08 | 0.00 | 62 | 1017.7 |
| 20260506144038 | 7 | 271 | 24.1 | 32.2 | 0.00 | 0.08 | 0.00 | 63 | 1017.7 |
| 20260506143538 | 7 | 255 | 24.1 | 35.4 | 0.00 | 0.08 | 0.00 | 63 | 1017.6 |
| 20260506143049 | 6 | 262 | 27.4 | 35.4 | 0.00 | 0.08 | 0.00 | 64 | 1017.7 |
| 20260506142538 | 6 | 261 | 25.7 | 32.2 | 0.00 | 0.08 | 0.00 | 65 | 1017.7 |
| 20260506142038 | 6 | 256 | 22.5 | 33.8 | 0.00 | 0.08 | 0.00 | 67 | 1017.6 |
| 20260506141548 | 6 | 254 | 27.4 | 33.8 | 0.00 | 0.08 | 0.00 | 66 | 1017.7 |
| 20260506141038 | 6 | 267 | 24.1 | 35.4 | 0.00 | 0.08 | 0.00 | 67 | 1017.6 |
| 20260506140541 | 6 | 263 | 27.4 | 35.4 | 0.00 | 0.08 | 0.00 | 65 | 1017.5 |
| 20260506140100 | 6 | 259 | 25.7 | 32.2 | 0.00 | 0.08 | 0.00 | 67 | 1017.3 |
| 20260506135541 | 6 | 259 | 19.3 | 27.4 | 0.00 | 0.08 | 0.00 | 68 | 1017.6 |
| 20260506135040 | 6 | 260 | 19.3 | 29.0 | 0.00 | 0.08 | 0.00 | 68 | 1017.6 |
| 20260506134546 | 5 | 260 | 20.9 | 30.6 | 0.00 | 0.08 | 0.00 | 69 | 1017.5 |
| 20260506134040 | 5 | 248 | 22.5 | 33.8 | 0.00 | 0.08 | 0.00 | 70 | 1017.5 |
| 20260506133540 | 5 | 257 | 25.7 | 35.4 | 0.00 | 0.08 | 0.00 | 70 | 1017.4 |
| 20260506133052 | 5 | 277 | 24.1 | 38.6 | 0.00 | 0.08 | 0.00 | 69 | 1017.2 |
| 20260506132540 | 5 | 252 | 27.4 | 38.6 | 0.00 | 0.08 | 0.00 | 70 | 1017.1 |
| 20260506132044 | 5 | 246 | 27.4 | 37.0 | 0.00 | 0.08 | 0.00 | 70 | 1017.0 |
| 20260506131544 | 5 | 269 | 27.4 | 37.0 | 0.00 | 0.08 | 0.00 | 69 | 1017.4 |
| 20260506131041 | 5 | 259 | 24.1 | 35.4 | 0.00 | 0.08 | 0.00 | 70 | 1017.3 |
| 20260506130541 | 5 | 263 | 22.5 | 35.4 | 0.00 | 0.08 | 0.00 | 72 | 1017.4 |
| 20260506130050 | 4 | 249 | 20.9 | 35.4 | 0.00 | 0.08 | 0.00 | 72 | 1017.4 |
| 20260506125540 | 4 | 267 | 25.7 | 40.2 | 0.00 | 0.08 | 0.00 | 73 | 1017.3 |
| 20260506125040 | 4 | 267 | 29.0 | 40.2 | 0.00 | 0.08 | 0.00 | 74 | 1016.9 |
| 20260506124552 | 3 | 267 | 22.5 | 30.6 | 0.00 | 0.08 | 0.00 | 75 | 1016.9 |
| 20260506124040 | 3 | 271 | 24.1 | 30.6 | 0.00 | 0.08 | 0.00 | 75 | 1016.7 |
| 20260506123543 | 3 | 259 | 19.3 | 25.7 | 0.00 | 0.08 | 0.00 | 76 | 1016.9 |
| 20260506123046 | 3 | 268 | 16.1 | 25.7 | 0.00 | 0.08 | 0.00 | 76 | 1017.3 |
| 20260506122540 | 3 | 292 | 12.9 | 19.3 | 0.00 | 0.08 | 0.00 | 77 | 1017.2 |
| 20260506122039 | 3 | 294 | 9.7 | 19.3 | 0.00 | 0.08 | 0.00 | 77 | 1017.2 |
| 20260506121545 | 2 | 294 | 12.9 | 19.3 | 0.00 | 0.08 | 0.00 | 78 | 1017.1 |
| 20260506121040 | 2 | 298 | 11.3 | 16.1 | 0.00 | 0.08 | 0.00 | 79 | 1016.9 |
| 20260506120544 | 2 | 292 | 8.0 | 16.1 | 0.00 | 0.08 | 0.00 | 80 | 1016.9 |
| 20260506120046 | 2 | 294 | 8.0 | 12.9 | 0.00 | 0.08 | 0.00 | 80 | 1016.9 |
| 20260506115541 | 2 | 293 | 4.8 | 9.7 | 0.00 | 0.08 | 0.00 | 80 | 1016.7 |
| 20260506115041 | 2 | 288 | 4.8 | 9.7 | 0.00 | 0.08 | 0.00 | 80 | 1016.7 |
| 20260506114556 | 2 | 290 | 6.4 | 11.3 | 0.00 | 0.08 | 0.00 | 80 | 1016.8 |
| 20260506114040 | 2 | 295 | 6.4 | 11.3 | 0.00 | 0.08 | 0.00 | 79 | 1016.8 |
| 20260506113540 | 2 | 297 | 8.0 | 11.3 | 0.00 | 0.08 | 0.00 | 79 | 1016.7 |
| 20260506113048 | 2 | 307 | 6.4 | 11.3 | 0.00 | 0.08 | 0.00 | 79 | 1016.7 |
| 20260506112540 | 2 | 300 | 6.4 | 11.3 | 0.00 | 0.08 | 0.00 | 78 | 1016.7 |
| 20260506112040 | 2 | 302 | 6.4 | 11.3 | 0.00 | 0.08 | 0.00 | 77 | 1016.6 |
| 20260506111551 | 2 | 302 | 8.0 | 12.9 | 0.00 | 0.08 | 0.00 | 77 | 1016.7 |
| 20260506111044 | 3 | 303 | 6.4 | 16.1 | 0.00 | 0.08 | 0.00 | 77 | 1016.7 |
| 20260506110540 | 3 | 311 | 9.7 | 16.1 | 0.00 | 0.08 | 0.00 | 76 | 1016.5 |
| 20260506110048 | 3 | 303 | 9.7 | 16.1 | 0.00 | 0.08 | 0.00 | 76 | 1016.6 |
| 20260506105537 | 3 | 298 | 9.7 | 16.1 | 0.00 | 0.08 | 0.00 | 76 | 1016.7 |
| 20260506105039 | 3 | 301 | 11.3 | 17.7 | 0.00 | 0.08 | 0.00 | 76 | 1016.4 |
| 20260506104557 | 3 | 281 | 11.3 | 17.7 | 0.00 | 0.08 | 0.00 | 77 | 1016.5 |
| 20260506104039 | 3 | 306 | 9.7 | 17.7 | 0.00 | 0.08 | 0.00 | 78 | 1016.5 |
| 20260506103537 | 3 | 299 | 9.7 | 17.7 | 0.00 | 0.08 | 0.00 | 77 | 1016.3 |
| 20260506103058 | 3 | 294 | 9.7 | 16.1 | 0.00 | 0.08 | 0.00 | 77 | 1016.3 |
| 20260506102539 | 3 | 291 | 11.3 | 16.1 | 0.00 | 0.08 | 0.00 | 76 | 1016.2 |
| 20260506102039 | 3 | 300 | 11.3 | 16.1 | 0.00 | 0.08 | 0.00 | 76 | 1016.1 |
| 20260506101551 | 3 | 298 | 11.3 | 17.7 | 0.00 | 0.08 | 0.00 | 75 | 1016.2 |
| 20260506101039 | 4 | 294 | 12.9 | 17.7 | 0.00 | 0.08 | 0.00 | 75 | 1016.2 |
| 20260506100539 | 4 | 296 | 11.3 | 17.7 | 0.00 | 0.08 | 0.00 | 75 | 1016.1 |
| 20260506100053 | 4 | 299 | 11.3 | 19.3 | 0.00 | 0.08 | 0.00 | 75 | 1016.1 |
| 20260506095540 | 4 | 286 | 11.3 | 19.3 | 0.00 | 0.08 | 0.00 | 74 | 1016.2 |
| 20260506095040 | 5 | 296 | 11.3 | 19.3 | 0.00 | 0.08 | 0.00 | 74 | 1016.1 |
| 20260506094548 | 5 | 298 | 12.9 | 19.3 | 0.00 | 0.08 | 0.00 | 74 | 1016.1 |
| 20260506094037 | 4 | 265 | 14.5 | 19.3 | 0.00 | 0.08 | 0.00 | 74 | 1016.2 |
| 20260506093539 | 4 | 284 | 14.5 | 19.3 | 0.00 | 0.08 | 0.00 | 75 | 1016.1 |
| 20260506093043 | 4 | 279 | 12.9 | 17.7 | 0.00 | 0.08 | 0.00 | 75 | 1016.2 |
| 20260506092538 | 4 | 262 | 11.3 | 17.7 | 0.00 | 0.08 | 0.00 | 75 | 1016.1 |
| 20260506092039 | 4 | 275 | 12.9 | 16.1 | 0.00 | 0.08 | 0.00 | 74 | 1016.0 |
| 20260506091550 | 5 | 258 | 11.3 | 16.1 | 0.00 | 0.08 | 0.00 | 73 | 1016.1 |
| 20260506091040 | 5 | 255 | 8.0 | 14.5 | 0.00 | 0.08 | 0.00 | 72 | 1016.0 |
| 20260506090538 | 5 | 267 | 11.3 | 19.3 | 0.00 | 0.08 | 0.00 | 71 | 1016.0 |
| 20260506090042 | 5 | 290 | 9.7 | 19.3 | 0.00 | 0.08 | 0.00 | 71 | 1016.0 |
| 20260506085537 | 5 | 287 | 9.7 | 14.5 | 0.00 | 0.08 | 0.00 | 71 | 1016.1 |
| 20260506085037 | 5 | 290 | 8.0 | 17.7 | 0.00 | 0.08 | 0.00 | 71 | 1016.0 |
| 20260506084553 | 5 | 298 | 11.3 | 17.7 | 0.00 | 0.08 | 0.00 | 72 | 1016.1 |
| 20260506084038 | 5 | 311 | 8.0 | 19.3 | 0.00 | 0.08 | 0.00 | 73 | 1016.1 |
| 20260506083539 | 5 | 281 | 12.9 | 19.3 | 0.00 | 0.08 | 0.00 | 72 | 1016.2 |
| 20260506083051 | 5 | 269 | 14.5 | 17.7 | 0.00 | 0.08 | 0.00 | 70 | 1016.3 |
| 20260506082539 | 6 | 280 | 11.3 | 22.5 | 0.00 | 0.08 | 0.00 | 67 | 1016.2 |
| 20260506082038 | 6 | 273 | 14.5 | 22.5 | 0.00 | 0.08 | 0.00 | 65 | 1016.2 |
| 20260506081549 | 6 | 280 | 12.9 | 20.9 | 0.00 | 0.08 | 0.00 | 62 | 1016.3 |
| 20260506081040 | 7 | 273 | 14.5 | 30.6 | 0.00 | 0.08 | 0.00 | 61 | 1016.3 |
| 20260506080538 | 7 | 286 | 19.3 | 30.6 | 0.00 | 0.08 | 0.00 | 60 | 1016.3 |
| 20260506073050 | 6 | 319 | 14.5 | 20.9 | 0.00 | 0.08 | 0.00 | 64 | 1016.3 |
| 20260506072538 | 6 | 315 | 12.9 | 20.9 | 0.00 | 0.08 | 0.00 | 64 | 1016.4 |
| 20260506072037 | 7 | 305 | 12.9 | 24.1 | 0.00 | 0.08 | 0.00 | 64 | 1016.4 |
| 20260506071550 | 7 | 286 | 16.1 | 24.1 | 0.00 | 0.08 | 0.00 | 64 | 1016.2 |
| 20260506071038 | 7 | 296 | 14.5 | 19.3 | 0.00 | 0.08 | 0.00 | 64 | 1016.3 |
| 20260506070538 | 7 | 298 | 12.9 | 19.3 | 0.00 | 0.08 | 0.00 | 65 | 1016.5 |
| 20260506062039 | 6 | 123 | 6.4 | 11.3 | 0.00 | 0.08 | 0.00 | 74 | 1016.6 |
| 20260506061553 | 6 | 113 | 6.4 | 8.0 | 0.00 | 0.08 | 0.00 | 71 | 1016.4 |
| 20260506061041 | 6 | 294 | 0.0 | 12.9 | 0.00 | 0.08 | 0.00 | 69 | 1016.4 |
| 20260506060539 | 7 | 294 | 6.4 | 19.3 | 0.00 | 0.08 | 0.00 | 66 | 1016.3 |
| 20260506051043 | 6 | 309 | 14.5 | 27.4 | 0.03 | 0.08 | 0.08 | 72 | 1016.3 |
| 20260506050538 | 7 | 325 | 17.7 | 32.2 | 0.05 | 0.08 | 0.08 | 72 | 1016.2 |
| 20260506045040 | 6 | 346 | 20.9 | 32.2 | 0.08 | 0.08 | 0.08 | 73 | 1016.0 |
| 20260506044619 | 6 | 324 | 19.3 | 27.4 | 0.08 | 0.08 | 0.08 | 74 | 1015.8 |
| 20260506044038 | 6 | 333 | 11.3 | 19.3 | 0.08 | 0.08 | 0.08 | 74 | 1015.9 |
| 20260506043538 | 6 | 317 | 11.3 | 20.9 | 0.08 | 0.08 | 0.08 | 74 | 1015.9 |
| 20260506043046 | 6 | 323 | 14.5 | 35.4 | 0.08 | 0.08 | 0.08 | 76 | 1015.8 |
| 20260506042539 | 6 | 334 | 20.9 | 35.4 | 0.08 | 0.08 | 0.08 | 76 | 1015.7 |
| 20260506042039 | 6 | 339 | 22.5 | 30.6 | 0.08 | 0.08 | 0.08 | 76 | 1015.8 |
| 20260506041549 | 6 | 331 | 20.9 | 32.2 | 0.08 | 0.08 | 0.08 | 77 | 1015.7 |
| 20260506041039 | 6 | 350 | 22.5 | 32.2 | 0.05 | 0.05 | 0.05 | 76 | 1015.4 |
| 20260506040539 | 6 | 326 | 24.1 | 32.2 | 0.03 | 0.03 | 0.03 | 77 | 1015.6 |
| 20260506040046 | 6 | 334 | 24.1 | 38.6 | 0.03 | 0.03 | 0.03 | 75 | 1015.5 |
| 20260506035536 | 7 | 339 | 27.4 | 40.2 | 0.00 | 0.00 | 0.00 | 73 | 1015.5 |
| 20260506035036 | 7 | 342 | 30.6 | 40.2 | 0.00 | 0.00 | 0.00 | 69 | 1015.2 |
| 20260506034543 | 7 | 5 | 24.1 | 40.2 | 0.00 | 0.00 | 0.00 | 69 | 1014.9 |
| 20260506034036 | 7 | 342 | 30.6 | 40.2 | 0.00 | 0.00 | 0.00 | 68 | 1014.9 |
| 20260506033537 | 7 | 350 | 29.0 | 45.1 | 0.00 | 0.00 | 0.00 | 68 | 1014.7 |
| 20260506033047 | 7 | 317 | 32.2 | 45.1 | 0.00 | 0.00 | 0.00 | 68 | 1014.2 |
| 20260506032540 | 7 | 346 | 29.0 | 46.7 | 0.00 | 0.00 | 0.00 | 68 | 1014.7 |
| 20260506032042 | 7 | 5 | 33.8 | 46.7 | 0.00 | 0.00 | 0.00 | 68 | 1014.5 |
| 20260506031543 | 7 | 339 | 32.2 | 40.2 | 0.00 | 0.00 | 0.00 | 68 | 1014.5 |
| 20260506031041 | 8 | 360 | 30.6 | 46.7 | 0.00 | 0.00 | 0.00 | 67 | 1014.4 |
| 20260506030540 | 8 | 335 | 30.6 | 46.7 | 0.00 | 0.00 | 0.00 | 65 | 1014.3 |
| 20260506030042 | 8 | 360 | 32.2 | 40.2 | 0.00 | 0.00 | 0.00 | 64 | 1014.2 |
| 20260506025539 | 8 | 348 | 25.7 | 38.6 | 0.00 | 0.00 | 0.00 | 62 | 1014.2 |
| 20260506025036 | 9 | 342 | 27.4 | 38.6 | 0.00 | 0.00 | 0.00 | 61 | 1014.3 |
| 20260506024547 | 9 | 350 | 27.4 | 38.6 | 0.00 | 0.00 | 0.00 | 61 | 1014.1 |
| 20260506024036 | 9 | 323 | 20.9 | 35.4 | 0.00 | 0.00 | 0.00 | 62 | 1014.3 |
| 20260506023538 | 9 | 331 | 19.3 | 29.0 | 0.00 | 0.00 | 0.00 | 62 | 1014.0 |
| 20260506023057 | 8 | 279 | 9.7 | 14.5 | 0.00 | 0.00 | 0.00 | 62 | 1013.7 |
| 20260506022536 | 8 | 265 | 9.7 | 12.9 | 0.00 | 0.00 | 0.00 | 61 | 1013.6 |
| 20260506022037 | 8 | 272 | 6.4 | 11.3 | 0.00 | 0.00 | 0.00 | 60 | 1013.6 |
| 20260506021555 | 9 | 280 | 6.4 | 11.3 | 0.00 | 0.00 | 0.00 | 60 | 1013.6 |
| 20260506021038 | 9 | 277 | 6.4 | 9.7 | 0.00 | 0.00 | 0.00 | 59 | 1013.6 |
| 20260506020539 | 9 | 290 | 6.4 | 11.3 | 0.00 | 0.00 | 0.00 | 59 | 1013.6 |
| 20260506020043 | 10 | 307 | 6.4 | 12.9 | 0.00 | 0.00 | 0.00 | 59 | 1013.6 |
| 20260506015537 | 10 | 294 | 8.0 | 16.1 | 0.00 | 0.00 | 0.00 | 58 | 1013.6 |
| 20260506015039 | 10 | 284 | 9.7 | 17.7 | 0.00 | 0.00 | 0.00 | 57 | 1013.6 |
| 20260506014545 | 10 | 286 | 11.3 | 20.9 | 0.00 | 0.00 | 0.00 | 56 | 1013.4 |
| 20260506014040 | 10 | 288 | 12.9 | 24.1 | 0.00 | 0.00 | 0.00 | 56 | 1013.3 |
| 20260506013536 | 10 | 306 | 16.1 | 25.7 | 0.00 | 0.00 | 0.00 | 55 | 1013.4 |
| 20260506013040 | 10 | 292 | 16.1 | 30.6 | 0.00 | 0.00 | 0.00 | 54 | 1013.3 |
| 20260506012538 | 11 | 288 | 19.3 | 30.6 | 0.00 | 0.00 | 0.00 | 53 | 1013.2 |
| 20260506012039 | 11 | 300 | 24.1 | 35.4 | 0.00 | 0.00 | 0.00 | 51 | 1013.0 |
| 20260506011537 | 11 | 290 | 20.9 | 35.4 | 0.00 | 0.00 | 0.00 | 51 | 1013.2 |
| 20260506011040 | 11 | 306 | 24.1 | 33.8 | 0.00 | 0.00 | 0.00 | 48 | 1013.4 |
| 20260506010538 | 11 | 300 | 19.3 | 32.2 | 0.00 | 0.00 | 0.00 | 48 | 1013.0 |
| 20260506010055 | 11 | 281 | 16.1 | 22.5 | 0.00 | 0.00 | 0.00 | 51 | 1012.8 |
| 20260506005537 | 12 | 273 | 16.1 | 22.5 | 0.00 | 0.00 | 0.00 | 51 | 1012.8 |
| 20260506005041 | 12 | 276 | 16.1 | 22.5 | 0.00 | 0.00 | 0.00 | 50 | 1012.6 |
| 20260506004552 | 12 | 278 | 12.9 | 25.7 | 0.00 | 0.00 | 0.00 | 50 | 1012.8 |
| 20260506004038 | 12 | 276 | 17.7 | 30.6 | 0.00 | 0.00 | 0.00 | 49 | 1012.9 |
| 20260506003538 | 12 | 277 | 19.3 | 30.6 | 0.00 | 0.00 | 0.00 | 47 | 1012.9 |
| 20260506003050 | 12 | 258 | 19.3 | 32.2 | 0.00 | 0.00 | 0.00 | 47 | 1012.9 |
| 20260506002538 | 13 | 282 | 19.3 | 32.2 | 0.00 | 0.00 | 0.00 | 46 | 1012.5 |
| 20260506002038 | 13 | 276 | 22.5 | 37.0 | 0.00 | 0.00 | 0.00 | 45 | 1012.7 |
| 20260506001553 | 13 | 281 | 22.5 | 37.0 | 0.00 | 0.00 | 0.00 | 44 | 1012.8 |
| 20260506001038 | 14 | 277 | 20.9 | 33.8 | 0.00 | 0.00 | 0.00 | 42 | 1012.8 |
| 20260506000539 | 14 | 269 | 24.1 | 33.8 | 0.00 | 0.00 | 0.00 | 41 | 1012.8 |
| 20260506000052 | 14 | 281 | 19.3 | 33.8 | 0.00 | 0.00 | 0.00 | 43 | 1012.7 |
| 20260505235541 | 14 | 262 | 24.1 | 35.4 | 0.00 | 0.00 | 0.00 | 43 | 1012.8 |
| 20260505235038 | 14 | 267 | 24.1 | 35.4 | 0.00 | 0.00 | 0.00 | 42 | 1012.7 |
| 20260505234602 | 14 | 253 | 25.7 | 35.4 | 0.00 | 0.00 | 0.00 | 41 | 1012.8 |
| 20260505234042 | 14 | 235 | 24.1 | 32.2 | 0.00 | 0.00 | 0.00 | 41 | 1012.7 |
| 20260505233541 | 14 | 245 | 16.1 | 29.0 | 0.00 | 0.00 | 0.00 | 43 | 1012.8 |
| 20260505233047 | 13 | 257 | 16.1 | 25.7 | 0.00 | 0.00 | 0.00 | 47 | 1012.9 |
| 20260505232538 | 14 | 257 | 20.9 | 24.1 | 0.00 | 0.00 | 0.00 | 46 | 1012.9 |
| 20260505232040 | 14 | 283 | 17.7 | 27.4 | 0.00 | 0.00 | 0.00 | 44 | 1013.0 |
| 20260505231549 | 13 | 292 | 20.9 | 27.4 | 0.00 | 0.00 | 0.00 | 44 | 1013.0 |
| 20260505231038 | 13 | 263 | 16.1 | 27.4 | 0.00 | 0.00 | 0.00 | 50 | 1012.9 |
| 20260505230538 | 13 | 247 | 17.7 | 27.4 | 0.00 | 0.00 | 0.00 | 49 | 1012.8 |
| 20260505230047 | 13 | 246 | 17.7 | 24.1 | 0.00 | 0.00 | 0.00 | 49 | 1012.8 |
| 20260505225538 | 13 | 265 | 16.1 | 24.1 | 0.00 | 0.00 | 0.00 | 51 | 1012.7 |
| 20260505225039 | 13 | 268 | 16.1 | 27.4 | 0.00 | 0.00 | 0.00 | 51 | 1012.9 |
| 20260505224548 | 13 | 275 | 19.3 | 32.2 | 0.00 | 0.00 | 0.00 | 51 | 1012.8 |
| 20260505224040 | 12 | 271 | 22.5 | 38.6 | 0.00 | 0.00 | 0.00 | 52 | 1013.0 |
| 20260505223537 | 12 | 278 | 27.4 | 51.5 | 0.00 | 0.00 | 0.00 | 52 | 1013.3 |
| 20260505223044 | 13 | 277 | 33.8 | 51.5 | 0.00 | 0.00 | 0.00 | 49 | 1013.4 |
| 20260505222545 | 13 | 268 | 33.8 | 46.7 | 0.00 | 0.00 | 0.00 | 48 | 1013.4 |
| 20260505222038 | 13 | 265 | 25.7 | 40.2 | 0.00 | 0.00 | 0.00 | 49 | 1013.4 |
| 20260505221547 | 13 | 292 | 29.0 | 40.2 | 0.00 | 0.00 | 0.00 | 47 | 1013.3 |
| 20260505221038 | 13 | 276 | 27.4 | 40.2 | 0.00 | 0.00 | 0.00 | 46 | 1013.5 |
| 20260505220542 | 13 | 276 | 24.1 | 35.4 | 0.00 | 0.00 | 0.00 | 48 | 1013.4 |
| 20260505220051 | 13 | 248 | 20.9 | 33.8 | 0.00 | 0.00 | 0.00 | 51 | 1013.4 |
| 20260505215538 | 13 | 304 | 12.9 | 32.2 | 0.00 | 0.00 | 0.00 | 51 | 1013.3 |
| 20260505215042 | 13 | 282 | 12.9 | 20.9 | 0.00 | 0.00 | 0.00 | 52 | 1013.4 |
| 20260505214604 | 13 | 305 | 11.3 | 19.3 | 0.00 | 0.00 | 0.00 | 52 | 1013.3 |
| 20260505214038 | 12 | 288 | 4.8 | 17.7 | 0.00 | 0.00 | 0.00 | 53 | 1013.4 |
| 20260505213541 | 12 | 321 | 8.0 | 20.9 | 0.00 | 0.00 | 0.00 | 54 | 1013.4 |
| 20260505213056 | 13 | 279 | 12.9 | 20.9 | 0.00 | 0.00 | 0.00 | 53 | 1013.6 |